User: anonymous   Login
Location: Knowlton
(51.2333°N, 1.2667°E)
Time: 02:44:44
(UTC+00:00)
Language:

Cosmos 405 Rocket - Orbit

View from above orbital plane
View from above orbital plane
View from above satellite
View from above satellite

Ground track
Ground track

The orbit data is extracted from the following two-line orbital elements,

1 05118U 71028B   21174.50870642  .00000070  00000-0  21813-5 0  9997
2 05118  81.2559 270.0626 0047171  42.2086 318.2758 15.15045066725980
Epoch (UTC): 23 June 2021 12:12:32
Eccentricity: 0.0047171
inclination: 81.2559°
perigee height: 488 km
apogee height: 553 km
right ascension of ascending node: 270.0626°
argument of perigee: 42.2086°
revolutions per day: 15.15045066
mean anomaly at epoch: 318.2758°
orbit number at epoch: 72598

The dashed part of the orbit path shows where the satellite is in the earth's shadow,  

DLR